Simultaneous Nadir Overpasses (SNOs) Predictions

Prediction of SNOs between FY3D and METOP-A Satellite Orbit:

Table of predicted SNOs for the next 14.0 days since TLE Epoch: 4/27/2019
Index Date (FY3D) Time (FY3D) Lat,Lon (FY3D) SZA (FY3D ) Date (METOP-A) Time (METOP-A) Lat,Lon (METOP-A) SZA (METOP-A ) Distance(km) Time Diff (sec)
1 05/08/2019 00:30:18 75.09, 159.91 58.40 05/08/2019 00:31:23 75.09, 163.28 58.21 96.49 65
2 05/08/2019 01:21:01 -75.07, -32.71 121.64 05/08/2019 01:22:07 -75.00, -29.65 121.88 88.23 66
3 05/08/2019 02:11:41 74.80, 135.37 58.04 05/08/2019 02:12:51 74.77, 137.05 57.91 49.13 70
4 05/08/2019 03:02:24 -74.78, -57.25 122.00 05/08/2019 03:03:34 -74.73, -55.73 122.14 44.65 70
5 05/08/2019 03:53:05 74.55, 110.68 57.74 05/08/2019 03:54:18 74.49, 110.99 57.65 11.03 73
6 05/08/2019 04:43:47 -74.48, -81.82 122.35 05/08/2019 04:45:01 -74.45, -81.79 122.40 3.11 74
7 05/08/2019 05:34:32 74.44, 85.59 57.60 05/08/2019 05:35:40 74.46, 85.57 57.61 2.08 68
8 05/08/2019 06:25:16 -74.47,-107.17 122.38 05/08/2019 06:26:22 -74.47,-107.09 122.40 2.36 66
9 05/08/2019 07:16:01 74.43, 60.24 57.57 05/08/2019 07:17:02 74.43, 60.14 57.56 2.86 61
10 05/08/2019 08:06:45 -74.46,-132.52 122.41 05/08/2019 08:07:44 -74.44,-132.51 122.45 2.71 59
11 05/08/2019 08:57:30 74.42, 34.89 57.55 05/08/2019 08:58:23 74.45, 34.85 57.56 2.53 53
12 05/08/2019 09:48:14 -74.45,-157.87 122.44 05/08/2019 09:49:05 -74.45,-157.80 122.45 1.91 51
13 05/08/2019 10:38:59 74.42, 9.54 57.52 05/08/2019 10:39:45 74.41, 9.43 57.51 3.26 46
14 05/08/2019 11:29:43 -74.44, 176.78 122.47 05/08/2019 11:30:27 -74.42, 176.78 122.50 2.39 44
15 05/08/2019 12:20:28 74.41, -15.81 57.49 05/08/2019 12:21:06 74.43, -15.87 57.51 3.02 38
16 05/08/2019 13:11:12 -74.44, 151.43 122.49 05/08/2019 13:11:48 -74.44, 151.48 122.50 1.53 36
17 05/08/2019 14:01:57 74.40, -41.16 57.46 05/08/2019 14:02:28 74.40, -41.29 57.46 3.70 31
18 05/08/2019 14:52:41 -74.43, 126.08 122.52 05/08/2019 14:53:10 -74.41, 126.06 122.55 2.16 29
19 05/08/2019 15:43:27 74.44, -66.64 57.49 05/08/2019 15:43:49 74.42, -66.58 57.46 3.10 22
20 05/08/2019 16:34:10 -74.42, 100.73 122.55 05/08/2019 16:34:31 -74.43, 100.77 122.55 1.29 21
21 05/08/2019 17:24:56 74.43, -91.99 57.46 05/08/2019 17:25:10 74.43, -91.87 57.45 3.41 14
22 05/08/2019 18:15:39 -74.41, 75.38 122.58 05/08/2019 18:15:53 -74.40, 75.35 122.60 2.06 14
23 05/08/2019 19:06:25 74.42,-117.34 57.43 05/08/2019 19:06:32 74.40,-117.30 57.41 2.61 7
24 05/08/2019 19:57:08 -74.40, 50.03 122.61 05/08/2019 19:57:14 -74.41, 50.05 122.60 1.26 6
25 05/08/2019 20:47:54 74.42,-142.69 57.40 05/08/2019 20:47:53 74.42,-142.59 57.40 3.01 1
26 05/08/2019 21:38:37 -74.39, 24.69 122.64 05/08/2019 21:38:36 -74.38, 24.63 122.65 2.10 1
27 05/08/2019 22:29:23 74.41,-168.04 57.37 05/08/2019 22:29:15 74.39,-168.01 57.36 2.14 8
28 05/08/2019 23:20:06 -74.39, -0.66 122.66 05/08/2019 23:19:57 -74.40, -0.66 122.65 1.46 9
29 05/09/2019 00:10:52 74.40, 166.61 57.35 05/09/2019 00:10:36 74.41, 166.69 57.35 2.66 16
30 05/09/2019 01:01:35 -74.38, -26.01 122.69 05/09/2019 01:01:19 -74.37, -26.08 122.70 2.27 16
31 05/09/2019 01:52:21 74.39, 141.26 57.32 05/09/2019 01:51:58 74.38, 141.27 57.31 1.72 23
32 05/09/2019 02:43:04 -74.37, -51.36 122.72 05/09/2019 02:42:40 -74.39, -51.38 122.70 1.81 24
33 05/09/2019 03:33:50 74.38, 115.91 57.29 05/09/2019 03:33:19 74.39, 115.98 57.30 2.39 31
34 05/09/2019 04:24:33 -74.36, -76.71 122.75 05/09/2019 04:24:02 -74.35, -76.80 122.74 2.55 31
35 05/09/2019 05:15:19 74.37, 90.56 57.26 05/09/2019 05:14:41 74.36, 90.56 57.26 1.37 38
36 05/09/2019 06:06:02 -74.35,-102.07 122.78 05/09/2019 06:05:23 -74.37,-102.09 122.75 2.23 39
37 05/09/2019 06:56:48 74.37, 65.21 57.23 05/09/2019 06:56:02 74.38, 65.27 57.25 2.21 46
38 05/09/2019 07:47:31 -74.34,-127.42 122.80 05/09/2019 07:46:45 -74.34,-127.51 122.79 2.89 46
39 05/09/2019 08:38:17 74.36, 39.86 57.20 05/09/2019 08:37:24 74.35, 39.85 57.21 1.18 53
40 05/09/2019 09:29:00 -74.34,-152.77 122.83 05/09/2019 09:28:06 -74.36,-152.81 122.80 2.69 54
41 05/09/2019 10:19:46 74.35, 14.51 57.18 05/09/2019 10:18:45 74.37, 14.55 57.20 2.16 61
42 05/09/2019 11:10:28 -74.33,-178.12 122.86 05/09/2019 11:09:27 -74.33,-178.22 122.84 3.29 61
43 05/09/2019 12:01:14 74.34, -10.84 57.15 05/09/2019 12:00:06 74.33, -10.87 57.16 1.20 68
44 05/09/2019 12:51:57 -74.32, 156.53 122.89 05/09/2019 12:50:48 -74.34, 156.48 122.85 3.18 69
45 05/09/2019 13:42:42 74.28, -36.06 57.07 05/09/2019 13:41:28 74.30, -36.29 57.11 7.09 74
46 05/09/2019 14:33:25 -74.26, 131.31 122.97 05/09/2019 14:32:11 -74.26, 130.94 122.93 11.19 74
47 05/09/2019 15:24:06 74.03, -60.80 56.77 05/09/2019 15:22:55 74.02, -62.32 56.86 46.46 71
48 05/09/2019 16:14:48 -73.96, 106.69 123.33 05/09/2019 16:13:38 -73.98, 104.92 123.19 54.54 70
49 05/09/2019 17:05:29 73.72, -85.43 56.41 05/09/2019 17:04:23 73.69, -88.44 56.56 93.73 66




NCC Satellite Simultaneous Nadir Overpasses (SNOs) Prediction Service
